Change the Weather History Date:

Saturday, October 1, 2005

  Actual Average Record
Temperature  
Mean Temperature 54 °F 57 °F  
Max Temperature 61 °F 65 °F 89 °F (1987)
Min Temperature 47 °F 49 °F 35 °F (1950)
Degree Days  
Heating Degree Days 11 8  
Month to date heating degree days 11 8  
Since 1 July heating degree days 223 225  
Cooling Degree Days 0 0  
Month to date cooling degree days 0 0  
Year to date cooling degree days 162 189  
Growing Degree Days 4 (Base 50)    
Moisture  
Dew Point 48 °F    
Average Humidity 80    
Maximum Humidity 100    
Minimum Humidity 60    
Precipitation  
Precipitation 0.07 in 0.07 in 0.56 in (1981)
Month to date precipitation 0.07 0.07  
Year to date precipitation 20.32 22.16  
Sea Level Pressure  
Sea Level Pressure 29.80 in    
Wind  
Wind Speed 8 mph (SSW)    
Max Wind Speed 17 mph    
Max Gust Speed 21 mph    
Visibility 9 miles    
Events Rain    
T = Trace of Precipitation, MM = Missing Value Source: NWS Daily Summary

Daily Weather History Graph

Daily Weather History Graph

Search for Another Location

Airport or City:

Trip Planner

Search our weather history database for the weather conditions in past years. The results will help you decide how hot, cold, wet, or windy it might be!

Date:

Astronomy

Oct. 01, 2005 Rise Set
Actual Time 7:08 AM PDT 6:48 PM PDT
Civil Twilight 6:38 AM PDT 7:18 PM PDT
Nautical Twilight 6:02 AM PDT 7:54 PM PDT
Astronomical Twilight 5:26 AM PDT 8:30 PM PDT
Moon 5:10 AM PDT 6:23 PM PDT
Length of Visible Light 12h 40m
Length of Day
11h 39m
Waning Crescent, 3% of the Moon is Illuminated
Oct 1
Waning Crescent
Oct 3
New
Oct 10
First Quarter
Oct 17
Full
Oct 24
Last Quarter

Hourly Weather History & Observations

Time (PDT) Temp. Dew Point Humidity Pressure Visibility Wind Dir Wind Speed Gust Speed Precip Events Conditions
12:34 AM 51.8 °F 51.8 °F 100% 29.75 in 9.0 mi South 6.9 mph - N/A   Overcast
12:56 AM 52.0 °F 51.1 °F 97% 29.77 in 10.0 mi South 10.4 mph - N/A   Overcast
1:03 AM 51.8 °F 51.8 °F 100% 29.75 in 10.0 mi South 10.4 mph - N/A   Overcast
1:56 AM 52.0 °F 50.0 °F 93% 29.78 in 10.0 mi South 5.8 mph - N/A   Overcast
2:56 AM 51.1 °F 48.9 °F 92% 29.78 in 10.0 mi South 6.9 mph - N/A   Overcast
2:58 AM 51.8 °F 48.2 °F 88% 29.76 in 10.0 mi South 6.9 mph - N/A   Overcast
3:06 AM 51.8 °F 48.2 °F 88% 29.76 in 10.0 mi South 5.8 mph - N/A   Overcast
3:56 AM 51.1 °F 48.9 °F 92% 29.78 in 10.0 mi South 4.6 mph - N/A   Overcast
4:56 AM 51.1 °F 48.9 °F 92% 29.77 in 10.0 mi South 6.9 mph - N/A   Overcast
5:56 AM 51.1 °F 50.0 °F 96% 29.77 in 10.0 mi SSW 5.8 mph - N/A   Overcast
6:03 AM 51.8 °F 48.2 °F 88% 29.75 in 10.0 mi SSW 6.9 mph - N/A   Overcast
6:56 AM 51.1 °F 50.0 °F 96% 29.77 in 10.0 mi South 6.9 mph - N/A   Overcast
7:56 AM 51.1 °F 50.0 °F 96% 29.78 in 7.0 mi SSW 8.1 mph - N/A   Overcast
8:56 AM 52.0 °F 50.0 °F 93% 29.80 in 7.0 mi SW 5.8 mph - 0.00 in   Mostly Cloudy
9:56 AM 53.1 °F 50.0 °F 89% 29.81 in 4.0 mi SSW 5.8 mph - 0.00 in Rain Rain
10:56 AM 52.0 °F 50.0 °F 93% 29.81 in 4.0 mi WNW 5.8 mph - N/A Rain Light Rain
11:26 AM 53.6 °F 50.0 °F 88% 29.80 in 10.0 mi Variable 4.6 mph - 0.00 in   Scattered Clouds
11:56 AM 55.9 °F 48.0 °F 75% 29.81 in 10.0 mi WSW 10.4 mph - 0.00 in   Scattered Clouds
12:56 PM 59.0 °F 46.9 °F 64% 29.81 in 10.0 mi SW 8.1 mph - N/A   Mostly Cloudy
1:56 PM 60.1 °F 46.9 °F 62% 29.80 in 10.0 mi NW 5.8 mph - N/A   Mostly Cloudy
2:56 PM 54.0 °F 50.0 °F 86% 29.81 in 3.0 mi West 3.5 mph - 0.05 in Rain Heavy Rain
3:56 PM 57.0 °F 46.9 °F 69% 29.81 in 10.0 mi SW 10.4 mph - 0.01 in Rain Light Rain
4:56 PM 57.9 °F 44.1 °F 60% 29.82 in 10.0 mi SW 13.8 mph 20.7 mph 0.00 in   Mostly Cloudy
5:56 PM 55.0 °F 45.0 °F 69% 29.83 in 10.0 mi SSW 10.4 mph - N/A   Mostly Cloudy
6:56 PM 54.0 °F 46.0 °F 75% 29.84 in 10.0 mi SSW 11.5 mph - N/A   Mostly Cloudy
7:56 PM 52.0 °F 45.0 °F 77% 29.86 in 10.0 mi SSW 12.7 mph - N/A   Mostly Cloudy
8:56 PM 50.0 °F 44.1 °F 80% 29.88 in 10.0 mi South 10.4 mph - N/A   Scattered Clouds
9:56 PM 48.9 °F 45.0 °F 86% 29.88 in 10.0 mi SSE 8.1 mph - N/A   Scattered Clouds
10:56 PM 48.9 °F 45.0 °F 86% 29.88 in 10.0 mi SSE 5.8 mph - N/A   Mostly Cloudy
11:56 PM 46.9 °F 44.1 °F 90% 29.88 in 10.0 mi South 6.9 mph - N/A   Scattered Clouds